Location: El Limón
(10.3059°N, 67.6321°W)
Time: 13:29:50
(UTC+00:00)

Nadezhda 2 Rocket - Pass Details

Date: 20 December 2025
Orbit: 946 x 1011 km, 83.0° (Epoch: 12 January)

Event Time Altitude Azimuth Distance (km) Brightness Sun altitude
Rises 23:46:16 0° 324° (NW) 3,611 7.7 -21.8°
Reaches altitude 10° 23:50:02 10° 300° (WNW) 2,674 7.3 -22.7°
Maximum altitude 23:53:05 14° 270° (W) 2,384 7.4 -23.4°
Drops below altitude 10° 23:56:11 10° 239° (WSW) 2,693 7.9 -24.1°
Sets 00:00:01 0° 216° (SW) 3,653 8.4 -25.0°
